Regional Weather Roundup
Issued by NWS Pendleton, OR

Home | Current Version | Previous Version | Text Only | Print | Product List | Glossary On
Versions: 1 2 3 4 5 6 7 8 9 10 11 12 13 14 15 16 17 18 19 20 21 22 23 24 25 26 27 28 29 30 31 32 33 34 35 36 37 38 39 40 41 42 43 44 45 46 47 48 49 50
000
ASUS46 KPDT 201104
RWRPDT
PENDLETON REGIONAL WEATHER ROUNDUP
NATIONAL WEATHER SERVICE PENDLETON OREGON
400 AM PDT WED AUG 20 2014

NOTE: FAIR INDICATES FEW OR NO CLOUDS BELOW 12,000 FEET WITH NO
SIGNIFICANT WEATHER AND/OR OBSTRUCTIONS TO VISIBILITY.

# INDICATES UNOFFICIAL STATION AND DATA

WAZ520-201210-
EAST SLOPES OF WASHINGTON CASCADES

CITY            SKY/WX      TMP DP  RH  WIND    PRES   REMARKS
#BULLFROG       N/A         64  52  65  W8      N/A
#BUMPING DAM    N/A         57  N/A N/A S5      N/A
#CLE ELUM HS    N/A         61  52  72  W7      29.76S
#CLE ELUM 2NW   N/A         60  51  72  SW8     N/A
#CLE ELUM LAKE  N/A         58  52  80  CALM    29.68S
#CLIFFDEL 2NW   N/A         58  51  77  W1      N/A
#EASTON DOT     N/A         59  46  62  N1      N/A
#ELK HTS DOT    N/A         62  62  100 W2      N/A
#GLENWOOD       N/A         57  54  90  SW3     29.75R
#MANASTASH CYN  N/A         57  49  75  CALM    29.81R
#NELSON         N/A         62  52  70  CALM    29.73R
#NELSON 3SW     N/A         60  51  72  CALM    29.88S
#NILE           N/A         61  53  75  W1      29.01S
#PEOH POINT     N/A         53  50  89  S7      N/A
#RONALD 2NW     N/A         61  52  72  CALM    29.73S
#SOUTH BLEWITT  N/A         53  51  93  CALM    N/A
#TEANAWAY 4NE   N/A         60  55  84  CALM    N/A
#TROUT LAKE 1NE N/A         59  52  78  W7      29.76S
$$

WAZ521-201210-
SIMCOE HIGHLANDS

CITY            SKY/WX      TMP DP  RH  WIND    PRES   REMARKS
#BICKLETON HS   N/A         57  47  69  W8      29.88S
#SATUS PASS DOT N/A         55  50  83  CALM    N/A
#CENTERVILLE 4W N/A         60  52  75  W9      29.60S
#CENTERVILLE 1SWN/A         59  51  75  SW12    29.73S
#GOLDENDALE 1NE N/A         61  53  75  W2      N/A
#GOLDENDALE 1S  N/A         60  54  81  CALM    29.83R
#GOLDENDALE 5WNWN/A         60  53  78  W5      29.74R
#GOODNOE HILLS  N/A         66  54  65  W18G26  29.75R
#LYLE 6NE       N/A         60  49  67  W8      29.74R
$$

WAZ026-201210-
KITTITAS VALLEY

CITY            SKY/WX      TMP DP  RH  WIND    PRES   REMARKS
ELLENSBURG AP   CLOUDY      66  52  61  NW14    29.77S
#ELLENSBURG CWU N/A         64  53  67  N8      29.66R
#ELLENSBURG 3NE N/A         63  54  72  N7      29.78S
#ELLENSBURG     N/A         67  56  68  NW8     N/A
#ELLENSBURG 1E  N/A         62  49  62  CALM    N/A
#KITTITAS 3S    N/A         57  54  90  CALM    29.67S
#MANASTASH RDG  N/A         59  59  100 W16     N/A
#ROCKY CYN DOT  N/A         66  53  63  W15G24  N/A
#RYEGRASS DOT   N/A         60  53  78  W16     N/A
#THORP 6N       N/A         61  52  72  W15G32  29.68S
$$

WAZ027-201210-
YAKIMA VALLEY

CITY            SKY/WX      TMP DP  RH  WIND    PRES   REMARKS
SUNNYSIDE AP    MOCLDY      57  55  93  CALM    29.77R
YAKIMA AIRPORT  PTCLDY      63  51  65  NE3     29.77R
YAKIMA-VAGABOND MOCLDY      65  52  63  SW5     29.78R
#COWICHE 1N     N/A         65  53  65  W7      29.96S
#DONALD 2NE     N/A         64  48  56  S1      30.10R
#GRANDVIEW      N/A         66  53  63  CALM    29.74R
#MABTON         N/A         66  55  68  W1      29.75R
#MOXEE 2E       N/A         60  50  69  CALM    29.75R
#NACHES 2SW     N/A         64  54  70  W10     29.78S
#PARKER DOT     N/A         71  49  46  E8      N/A
#SELAH 8E       N/A         60  50  69  W2      N/A
#TERRACE HTS    N/A         64  53  67  CALM    29.66R
#TOPPENISH      N/A         64  52  65  CALM    29.64R
#I82 S UMTANUM RN/A         67  51  56  W16     N/A
#UNION GAP DOT  N/A         64  51  63  CALM    N/A
#WAPATO 4NE     N/A         65  48  54  CALM    30.10R
#WEST VALLEY    N/A         66  51  58  CALM    29.68S
#W YAKIMA       N/A         67  53  61  SW3     29.69S
#WHITE SWAN 5E  N/A         66  53  63  SW8     29.71S
#WILEY CITY 3W  N/A         63  54  72  CALM    29.76R
#ZILLAH DOT     N/A         65  53  65  W1      N/A
$$

WAZ028-201210-
LOWER COLUMBIA BASIN...WASHINGTON

CITY            SKY/WX      TMP DP  RH  WIND    PRES   REMARKS
PASCO           CLEAR       69  56  63  SW8     29.74R
PROSSER AWOS    N/A         63  55  75  N1      29.79R
RICHLAND AWOS   PTCLDY      70  54  57  W8      29.74R
#BASIN CITY 5SW N/A         69  55  61  CALM    29.72S
#BENTON CITY    N/A         69  54  59  SW8     29.62R
#CONNELL 5N     N/A         64  55  73  SW3     29.67R
#CONNELL 5NW    N/A         62  54  75  SW2     29.64R
#ELTOPIA        N/A         66  58  75  CALM    29.67R
#ELTOPIA 6NW    N/A         65  56  73  S5      28.71R
#KENNEWICK 3S   N/A         65  60  84  N7      29.70R
#PATERSON       N/A         68  58  70  W6      29.72R
#PROSSER DOT    N/A         63  56  78  W8      N/A
#PROSSER        N/A         67  51  56  SW2     29.71R
#SAGEMOOR 2W    N/A         68  57  68  S2      29.55R
#TOUCHET 2S     N/A         71  57  61  S13     29.69R
#WEST PASCO     N/A         71  54  55  CALM    29.69R
$$

WAZ029-201210-
FOOTHILLS OF THE BLUES...WASHINGTON

CITY            SKY/WX      TMP DP  RH  WIND    PRES   REMARKS
WALLA WALLA AP  CLEAR       69  55  61  S14     29.79S
#COLLEGE PLACE  N/A         72  55  55  S3      29.77R
#DAYTON SCHOOL  N/A         69  51  53  S8      29.78R
#LOWDEN 2SE     N/A         70  57  63  W3      29.72R
#PLEASANT VIEW 1N/A         64  55  73  S10     29.70R
#PRESCOTT       N/A         68  57  68  CALM    29.69R
#SUDBURY        N/A         69  N/A N/A CALM    N/A
#WHITMAN COLLEGEN/A         69  56  63  S3      29.77R
#WAITSBURG 8N   N/A         64  45  50  S8      29.71R
#WALLA WALLA 5E N/A         98  49  19  CALM    N/A    HX 95
#WALLA WALLA U  N/A         71  57  61  S1      29.72R
#WHITMAN MISSIONN/A         71  57  61  SW2     29.73R
$$

WAZ030-201210-
BLUE MOUNTAINS...WASHINGTON

CITY            SKY/WX      TMP DP  RH  WIND    PRES   REMARKS
$$

ORZ009-041-WAZ024-201210-
COLUMBIA RIVER GORGE

CITY            SKY/WX      TMP DP  RH  WIND    PRES   REMARKS
HOOD RIVER AP   CLEAR       63  50  62  W9      29.86R
THE DALLES AP   CLEAR       66  51  58  NW22G31 29.83R
#ARLINGTON AIRPON/A         66  55  68  W12     N/A
#ARLINGTON HS   N/A         69  55  61  S1      29.66R
#MARYHILL       N/A         65  53  65  E2      N/A
#MARYHILL 2W    N/A         67  51  56  NW14G24 N/A
#MOSIER 1S      N/A         61  44  53  W8      29.91R
#MURDOCK        N/A         67  55  65  W12G25  29.83R
#RUFUS DOT      N/A         71  54  55  S8      N/A

$$

ORZ510-201210-
NORTH CENTRAL OREGON

CITY            SKY/WX      TMP DP  RH  WIND    PRES   REMARKS
#CHENOWITH 1W   N/A         57  50  77  NW21    N/A
#COW CYN RST AREN/A         60  53  78  W7      N/A
#DUFUR 9E       N/A         55  51  86  NW12    29.80R
#GRASS VALLEY   N/A         56  53  90  W1      N/A
#GRASS VALLEY 1SN/A         57  51  80  CALM    29.78R
#KENT DOT       N/A         59  46  62  W12     N/A
#MORO SCHOOL    N/A         60  57  90  W9      29.87R
#SHANIKO 5WSW   N/A         57  49  75  W6      N/A
#SHANIKO 4NW    N/A         56  51  83  W10     29.90R
#TYGH VALLEY 2NEN/A         61  52  72  CALM    29.75R
#WAPANITIA AIRPON/A         62  52  70  W7      29.77R
#WASCO DOT      N/A         63  54  72  W7      N/A
#WASCO 5NE      N/A         61  53  75  W10     29.74S
$$

ORZ511-201210-
CENTRAL OREGON

CITY            SKY/WX      TMP DP  RH  WIND    PRES   REMARKS
BEND AIRPORT    CLEAR       50  46  86  CALM    29.93S
MADRAS AIRPORT  CLEAR       59  54  83  N6      29.89R
REDMOND AIRPORT CLEAR       59  49  69  CALM    29.90R
#BEND 6E        N/A         55  47  74  CALM    29.70R
#BEND 1SW       N/A         57  51  80  S2      N/A
#BEND-AWBREY    N/A         58  52  80  N3      29.73S
#BEND-KIM LN    N/A         54  51  90  CALM    29.89S
#CROOKED RVR RANN/A         64  54  70  W7      29.73S
#CULVER         N/A         61  53  75  W2      29.85R
#LAKE BILLY CHINN/A         61  43  51  CALM    29.94R
#POWELL BUTTE 3EN/A         55  49  80  S3      N/A
#POWELL BUTTE   N/A         62  50  65  W2      29.56S
#PRINEVILLE 3N  N/A         54  50  86  CALM    29.73R
#WARM SPRINGS   N/A         64  54  70  SW2     29.84R


ORZ509-201210-
EAST SLOPES OF OREGON CASCADES

CITY            SKY/WX      TMP DP  RH  WIND    PRES   REMARKS
#BLUE BOX PASS  N/A         52  -1  11  NW2     N/A
#BLACK BUTTE RNCN/A         62  54  75  CALM    29.73S
#CAMP SHERMAN   N/A         62  52  70  CALM    29.73R
#LA PINE DOT    N/A         51  47  86  SE1     N/A
#LA PINE 4NW    N/A         53  47  80  CALM    29.80S
#LAVA BUTTE DOT N/A         55  50  83  SE5     N/A
#MT BACHELOR-MIDN/A         46  44  93  SW17    N/A    WCI 39
#SISTERS AIRPOR N/A         64  57  78  N7      29.90R
#SISTERS ODOT   N/A         64  N/A N/A S1      N/A
#SISTERS 3N     N/A         61  52  72  CALM    N/A
#SUNRIVER       N/A         56  51  83  S2      29.65S
#SUTTLE LK DOT  N/A         54  51  90  W22G29  N/A
#TUMALO 3W      N/A         56  48  74  CALM    29.63R
#WANOGA BUTTE D N/A         52  39  61  SW1     N/A

$$

ORZ044-201210-
LOWER COLUMBIA BASIN...OREGON

CITY            SKY/WX      TMP DP  RH  WIND    PRES   REMARKS
HERMISTON       CLEAR       68  56  65  SW12    29.77R
#BOARDMAN SCHOOLN/A         68  56  65  W2      29.77R
#BOARDMAN 3W    N/A         66  58  75  SW10    29.47R
#BOARDMAN 8SW   N/A         66  57  73  SW8     29.75R
#ECHO 8SW       N/A         69  55  61  W8      29.75R
#IONE SCHOOL    N/A         66  53  63  SW8     29.81R
#IRRIGON 4NW    N/A         70  59  68  SW10    N/A
#UMATILLA SCHOOLN/A         69  63  81  SW2     29.82R
#UMATILLA       N/A         86  58  39  SW12    29.74R
$$

ORZ507-201210-
NORTHERN FOOTHILLS OF THE BLUES

CITY            SKY/WX      TMP DP  RH  WIND    PRES   REMARKS
PENDLETON AIRPT MOCLDY      68  52  57  W14     29.81R
#ADAMS 3WNW     N/A         65  54  68  SW8     29.73R
#ATHENA         N/A         66  54  65  W3      29.74S
#HELIX SCHOOL   N/A         65  54  68  S6      29.72R
#HELIX 3N       N/A         64  54  70  SW10    29.79R
#HOLDMAN 5SE    N/A         67  55  65  W9      29.81R
#HOLDMAN 6E     N/A         64  54  70  N7      29.54R
#M-F GROVE ELEM N/A         70  54  57  SW6     29.78R
#M-FREEWATER 5SEN/A         69  55  61  S7      29.80R
#PDT AQUATIC CTRN/A         71  51  49  W5      29.53R
#PENDLETON DNTN N/A         70  49  47  CALM    29.78R
#PDT SUNRIDGE   N/A         70  54  57  CALM    29.80S
#PENDLETON 7NW  N/A         69  55  61  W14     32.02S
#PILOT ROCK     N/A         68  50  53  S7      29.85R
#TUTUILLA       N/A         70  55  59  SW5     29.70R
#UMAPINE 2E     N/A         70  57  63  SW3     29.73S
#WESTON SCHOOL  N/A         63  51  65  W6      29.79R

$$

ORZ508-201210-
SOUTHERN FOOTHILLS OF THE BLUES

CITY            SKY/WX      TMP DP  RH  WIND    PRES   REMARKS
LEXINGTON       CLEAR       64  55  73  SW10    29.85R
#AJAX           N/A         60  49  67  W2      29.81R
#CONDON SCHOOL  N/A         59  53  80  W6      29.85S
#CONDON 5W      N/A         57  49  75  W13     29.86S
#FOSSIL SCHOOL  N/A         56  51  83  CALM    29.86S
#HEPPNER 4NE    N/A         60  53  78  W3      29.72R
#LEXINGTON 2SE  N/A         66  54  65  CALM    29.80R
#MIKKALO        N/A         64  52  65  W8      29.85S
#OLEX 4N        N/A         65  54  68  W14     29.80S
#RUGGS 5NE      N/A         57  52  83  SW1     30.04S
#RUGGS 2SW      N/A         58  51  77  SW5     29.77S

$$

ORZ502-503-201210-
BLUE MOUNTAINS

CITY            SKY/WX      TMP DP  RH  WIND    PRES   REMARKS
MEACHAM         MOCLDY      56  50  80  CALM    29.91R
#BATTLE MTN DOT N/A         56  55  96  CALM    N/A
#HEPPNER 15SE   N/A         55  50  83  CALM    29.83R
#LADD CYN SMT   N/A         61  44  53  NW6     N/A
#LADD CREEK ODOTN/A         64  50  60  NW2     N/A
#LONG CREEK HS  N/A         54  51  90  CALM    N/A
#N POWDER DOT   N/A         56  52  86  NE6     N/A
#PIKES PEAK     N/A         60  54  81  SW25G32 27.99S
#TOLLGATE 9W    N/A         58  54  87  E1      N/A
#TROY SCHOOL    N/A         64  53  67  W5      29.55R
#UKIAH          N/A         51  48  89  CALM    29.79R
#WESTON 4E      N/A         59  51  75  S3      29.65R
$$

ORZ505-201210-
JOHN DAY BASIN

CITY            SKY/WX      TMP DP  RH  WIND    PRES   REMARKS
JOHN DAY        CLEAR       61  49  65  W5      29.92R
#JOHN DAY KJDY  N/A         58  52  80  CALM    30.24R
#MONUMENT HS    N/A         58  49  72  CALM    29.88R
#MT. VERNON 5SE N/A         56  47  72  CALM    29.88S
#WINLOCK        N/A         56  50  80  CALM    29.97S
$$

ORZ506-201210-
OCHOCO AND JOHN DAY HIGHLANDS

CITY            SKY/WX      TMP DP  RH  WIND    PRES   REMARKS
#BUCK CREEK DOT N/A         59  55  87  NW6     N/A
#HORSE RIDGE DO N/A         47  45  93  E1      N/A
#KEYES SMT DOT  N/A         56  48  74  NW6     N/A
#PAULINA SCHOOL N/A         N/A N/A N/A CALM    29.93R
#PRAIRIE CITY   N/A         48  43  83  CALM    29.92R
#SENECA 9NW     N/A         47  41  79  CALM    29.69R
$$

ORZ049-201210-
GRANDE RONDE VALLEY

CITY            SKY/WX      TMP DP  RH  WIND    PRES   REMARKS
LA GRANDE       PTCLDY      64  43  46  NW9     29.85R
#COVE           N/A         60  53  78  CALM    29.79R
#COVE SCHOOL    N/A         60  52  75  CALM    29.85S
#COVE 6NW       N/A         57  49  75  CALM    29.76R
#ELGIN 3N       N/A         61  47  60  CALM    29.59R
#ELGIN 1E       N/A         59  49  69  CALM    N/A
#IMBLER SCHOOL  N/A         68  47  47  CALM    29.83R
#ISLAND CITY 4N N/A         65  52  63  CALM    29.65S
#LADD CYN DOT   N/A         64  50  60  NE2     N/A
#LA GRANDE ELEM N/A         65  50  58  SW8     29.86R
#UNION 1S       N/A         62  52  70  NE1     29.62R
$$

ORZ050-201210-
WALLOWA COUNTY

CITY            SKY/WX      TMP DP  RH  WIND    PRES   REMARKS
#ENTERPRISE AP  N/A         55  45  69  E2      29.84R
#ENTERPRISE HS  N/A         52  45  77  CALM    29.90R
#IMNAHA 10S     N/A         62  46  56  S6      29.85R
#JOSEPH 3N      N/A         49  45  86  NE1     29.91S
#JOSEPH 3W      N/A         54  43  66  SW2     29.77R
#MT HOWARD 8000 N/A         49  39  68  CALM    30.09S
#PROMISE 1S     N/A         62  52  70  E9      29.78R
#SHEEP RDG 7000 N/A         53  42  66  CALM    29.65S
#WALLOWA SCHOOL N/A         53  48  83  CALM    30.59R



$$



USA.gov is the U.S. government's official web portal to all federal, state and local government web resources and services.